N1HUI Weather Reports


Display with metric or nautical units.
time (UTC)temp
F
wind
direction
speed
MPH
gust
MPH
rain 1hr
in
rain 24hr
in
rain mn
in
humidity
%
barometer
mb
20260506190058 56 153 5.0 0.0 0.00 0.00 0.00 97 1002.9
20260506190015 57 192 0.0 6.0 0.00 0.00 0.00 85 1008.1
20260506184607 56 172 5.0 0.0 0.00 0.00 0.00 97 1003.1
20260506184513 57 181 1.0 8.0 0.00 0.00 0.00 84 1008.1
20260506183102 56 169 5.0 0.0 0.00 0.00 0.00 96 1003.3
20260506183013 57 185 0.0 4.0 0.00 0.00 0.00 84 1008.1
20260506181554 56 139 5.0 0.0 0.00 0.00 0.00 96 1003.3
20260506181512 57 190 0.0 6.0 0.00 0.00 0.00 84 1008.3
20260506180054 56 149 5.0 0.0 0.00 0.00 0.00 94 1003.6
20260506180011 57 175 1.0 5.0 0.00 0.00 0.00 83 1008.4
20260506174551 56 115 3.0 0.0 0.00 0.00 0.00 93 1004.0
20260506174509 58 186 0.0 6.0 0.00 0.00 0.00 83 1008.8
20260506173053 57 145 2.0 0.0 0.00 0.00 0.00 93 1004.3
20260506173006 58 178 0.0 7.0 0.00 0.00 0.00 83 1009.2
20260506171553 57 140 2.0 0.0 0.00 0.00 0.00 92 1004.4
20260506171510 59 193 0.0 8.0 0.00 0.00 0.00 82 1009.2
20260506170107 58 192 3.0 0.0 0.00 0.00 0.00 92 1004.6
20260506170019 58 212 3.0 0.0 0.00 0.00 0.00 91 1004.6
20260506170005 60 162 0.0 6.0 0.00 0.00 0.00 81 1009.5
20260506164549 58 188 4.0 0.0 0.00 0.00 0.00 90 1004.8
20260506164505 60 189 1.0 5.0 0.00 0.00 0.00 80 1009.5
20260506163100 59 227 3.0 0.0 0.00 0.00 0.00 89 1004.8
20260506163007 60 142 1.0 8.0 0.00 0.00 0.00 80 1009.8
20260506161548 59 181 4.0 0.0 0.00 0.00 0.00 89 1004.9
20260506161504 61 118 2.0 7.0 0.00 0.00 0.00 80 1009.7
20260506160047 59 199 6.0 0.0 0.00 0.00 0.00 89 1005.3
20260506160007 61 150 2.0 9.0 0.00 0.00 0.00 80 1010.0
20260506154546 59 162 4.0 0.0 0.00 0.00 0.00 89 1005.3
20260506154503 61 182 2.0 12.0 0.00 0.00 0.00 80 1010.2
20260506153048 59 214 2.0 0.0 0.00 0.00 0.00 89 1004.9
20260506153004 61 181 0.0 5.0 0.00 0.00 0.00 79 1010.3
20260506151547 59 135 3.0 0.0 0.00 0.00 0.00 89 1004.9
20260506151503 61 170 1.0 6.0 0.00 0.00 0.00 78 1010.0
20260506150045 59 131 4.0 0.0 0.00 0.00 0.00 89 1005.2
20260506150002 62 104 0.0 7.0 0.00 0.00 0.00 78 1010.1
20260506144558 59 192 5.0 0.0 0.00 0.00 0.00 88 1005.4
20260506144501 63 171 0.0 4.0 0.00 0.00 0.00 78 1010.3
20260506143108 63 169 2.0 11.0 0.00 0.00 0.00 78 1010.4
20260506143045 60 168 5.0 0.0 0.00 0.00 0.00 87 1005.4
20260506141600 63 198 2.0 9.0 0.00 0.00 0.00 78 1010.3
20260506141543 61 202 6.0 0.0 0.00 0.00 0.00 87 1005.7
20260506140101 62 155 2.0 8.0 0.00 0.00 0.00 79 1010.6
20260506140045 60 225 5.0 0.0 0.00 0.00 0.00 88 1005.4
20260506134558 62 190 1.0 5.0 0.00 0.00 0.00 80 1010.3
20260506134540 60 181 4.0 0.0 0.00 0.00 0.00 89 1005.4
20260506133058 61 179 0.0 6.0 0.00 0.00 0.00 80 1010.3
20260506133040 59 194 3.0 0.0 0.00 0.00 0.00 90 1005.2
20260506131600 61 188 0.0 8.0 0.00 0.00 0.00 79 1010.1
20260506131538 59 180 4.0 0.0 0.00 0.00 0.00 91 1005.4
20260506130059 62 165 2.0 9.0 0.00 0.00 0.00 78 1010.2
20260506130038 59 235 5.0 0.0 0.00 0.00 0.00 90 1005.6
20260506124555 63 146 2.0 6.0 0.00 0.00 0.00 79 1010.5
20260506124535 59 192 5.0 0.0 0.00 0.00 0.00 90 1005.8
20260506123054 62 169 0.0 7.0 0.00 0.00 0.00 81 1010.8
20260506123033 59 194 5.0 0.0 0.00 0.00 0.00 91 1005.7
20260506121552 61 175 1.0 7.0 0.00 0.00 0.00 82 1010.7
20260506121527 58 203 4.0 0.0 0.00 0.00 0.00 92 1005.4
20260506120056 60 171 1.0 7.0 0.00 0.00 0.00 83 1010.6
20260506120037 58 221 4.0 0.0 0.00 0.00 0.00 93 1005.3
20260506114555 58 138 1.0 6.0 0.00 0.00 0.00 84 1010.6
20260506114522 58 180 4.0 0.0 0.00 0.00 0.00 94 1005.4
20260506113049 57 126 0.0 4.0 0.00 0.00 0.00 84 1010.6
20260506113028 57 246 3.0 0.0 0.00 0.00 0.00 94 1005.4
20260506111550 57 166 0.0 4.0 0.00 0.00 0.00 84 1010.6
20260506111519 57 261 2.0 0.0 0.00 0.00 0.00 95 1005.4
20260506110055 56 150 1.0 7.0 0.00 0.00 0.00 84 1010.6
20260506110017 56 242 1.0 0.0 0.00 0.00 0.00 95 1005.3
20260506104548 56 166 0.0 4.0 0.00 0.00 0.00 84 1010.6
20260506104515 56 254 0.0 0.0 0.00 0.00 0.00 96 1005.4
20260506103041 55 175 0.0 3.0 0.00 0.00 0.00 84 1010.6
20260506103015 55 202 2.0 0.0 0.00 0.00 0.00 96 1005.4
20260506101543 55 175 0.0 5.0 0.00 0.00 0.00 84 1010.6
20260506101516 55 251 1.0 0.0 0.00 0.00 0.00 95 1005.3
20260506100044 55 171 0.0 5.0 0.00 0.00 0.00 84 1010.5
20260506100015 55 187 0.0 0.0 0.00 0.00 0.00 95 1005.2
20260506094554 55 175 0.0 3.0 0.00 0.00 0.00 84 1010.4
20260506094516 55 234 1.0 0.0 0.00 0.00 0.00 95 1005.1
20260506093043 55 175 0.0 3.0 0.00 0.00 0.00 84 1010.4
20260506093014 55 178 0.0 0.0 0.00 0.00 0.00 95 1005.2
20260506091538 55 175 0.0 6.0 0.00 0.00 0.00 84 1010.5
20260506091517 55 175 2.0 0.0 0.00 0.00 0.00 95 1005.3
20260506090035 55 190 0.0 1.0 0.00 0.00 0.00 84 1010.6
20260506090019 55 221 2.0 0.0 0.00 0.00 0.00 94 1005.4
20260506084535 55 190 0.0 4.0 0.00 0.00 0.00 83 1010.6
20260506084513 55 215 3.0 0.0 0.00 0.00 0.00 95 1005.6
20260506083035 55 175 0.0 5.0 0.00 0.00 0.00 83 1010.8
20260506083014 55 202 0.0 0.0 0.00 0.00 0.00 94 1005.4
20260506081535 56 174 0.0 5.0 0.00 0.00 0.00 83 1010.7
20260506081513 55 241 1.0 0.0 0.00 0.00 0.00 94 1005.5
20260506073030 56 181 1.0 7.0 0.00 0.00 0.00 83 1010.8
20260506073011 56 172 1.0 0.0 0.00 0.00 0.00 93 1005.7
20260506071532 56 186 1.0 7.0 0.00 0.00 0.00 82 1010.8
20260506071511 56 227 3.0 0.0 0.00 0.00 0.00 93 1005.7
20260506061532 57 184 0.0 4.0 0.00 0.00 0.00 82 1010.9
20260506061508 56 220 1.0 0.0 0.00 0.00 0.00 91 1005.8
20260506044524 58 169 0.0 8.0 0.00 0.00 0.00 80 1011.3
20260506044508 58 215 6.0 0.0 0.00 0.00 0.00 88 1006.2
20260506043016 58 169 1.0 5.0 0.00 0.00 0.00 80 1011.3
20260506043008 58 230 8.0 0.0 0.00 0.00 0.00 88 1006.2
20260506041518 58 172 0.0 3.0 0.00 0.00 0.00 80 1011.4
20260506041507 58 240 7.0 0.0 0.00 0.00 0.00 88 1006.2
20260506040037 58 172 0.0 5.0 0.00 0.00 0.00 80 1011.3
20260506040007 58 238 5.0 0.0 0.00 0.00 0.00 89 1006.3
20260506034515 58 180 0.0 9.0 0.00 0.00 0.00 80 1011.3
20260506034505 58 242 5.0 0.0 0.00 0.00 0.00 89 1006.2
20260506033015 59 185 0.0 4.0 0.00 0.00 0.00 79 1011.3
20260506033010 58 225 6.0 0.0 0.00 0.00 0.00 88 1006.0
20260506031530 59 155 3.0 9.0 0.00 0.00 0.00 79 1011.2
20260506031505 58 232 6.0 0.0 0.00 0.00 0.00 87 1006.3
20260506030015 58 173 1.0 6.0 0.00 0.00 0.00 79 1011.3
20260506030005 58 274 6.0 0.0 0.00 0.00 0.00 86 1006.0
20260506024519 59 192 0.0 4.0 0.00 0.00 0.00 78 1011.2
20260506024514 59 236 7.0 0.0 0.00 0.00 0.00 84 1005.9
20260506023013 59 182 0.0 12.0 0.00 0.00 0.00 77 1011.2
20260506023004 59 226 7.0 0.0 0.00 0.00 0.00 83 1005.9
20260506021513 59 174 0.0 8.0 0.00 0.00 0.00 77 1011.2
20260506021504 60 201 7.0 0.0 0.00 0.00 0.00 81 1005.7
20260506020013 59 215 0.0 5.0 0.00 0.00 0.00 76 1010.9
20260506020006 60 203 9.0 0.0 0.00 0.00 0.00 82 1005.6
20260506014514 60 210 0.0 2.0 0.00 0.00 0.00 75 1010.9
20260506014502 59 230 6.0 0.0 0.00 0.00 0.00 83 1005.4
20260506013012 60 262 0.0 16.0 0.00 0.00 0.00 75 1010.6
20260506013003 59 224 5.0 0.0 0.00 0.00 0.00 83 1005.4
20260506011512 61 204 3.0 17.0 0.00 0.00 0.00 74 1010.6
20260506011504 59 232 6.0 0.0 0.00 0.00 0.00 83 1005.3
20260506010013 60 146 4.0 16.0 0.00 0.00 0.00 74 1010.2
20260506010002 59 222 5.0 0.0 0.00 0.00 0.00 82 1004.9
20260506004521 60 162 4.0 16.0 0.00 0.00 0.00 75 1010.1
20260506004505 59 256 4.0 0.0 0.00 0.00 0.00 82 1004.8
20260506003014 60 198 2.0 9.0 0.00 0.00 0.00 75 1009.9
20260506003002 60 273 7.0 0.0 0.00 0.00 0.00 81 1004.6
20260506001511 60 212 0.0 4.0 0.00 0.00 0.00 75 1009.8
20260506001502 60 255 7.0 0.0 0.00 0.00 0.00 79 1004.2
20260506000011 60 226 0.0 5.0 0.00 0.00 0.00 74 1009.4
20260506000001 61 273 9.0 0.0 0.00 0.00 0.00 78 1003.9
20260505234511 61 218 0.0 3.0 0.00 0.00 0.00 72 1009.2
20260505234502 59 184 3.0 0.0 0.00 0.00 0.00 80 1003.8
20260505233010 62 219 0.0 4.0 0.00 0.00 0.00 71 1009.1
20260505233002 60 176 6.0 0.0 0.00 0.00 0.00 79 1003.8
20260505231510 63 303 0.0 5.0 0.00 0.00 0.00 69 1008.9
20260505231502 61 174 2.0 0.0 0.00 0.00 0.00 77 1003.7
20260505230014 64 186 0.0 11.0 0.00 0.00 0.00 68 1008.8
20260505230002 61 204 5.0 0.0 0.00 0.00 0.00 76 1004.0
20260505224600 62 274 6.0 0.0 0.00 0.00 0.00 75 1003.9
20260505224510 64 181 2.0 13.0 0.00 0.00 0.00 68 1009.2
20260505223107 63 229 9.0 0.0 0.00 0.00 0.00 72 1003.8
20260505223011 64 170 5.0 17.0 0.00 0.00 0.00 69 1009.0
20260505221601 63 231 7.0 0.0 0.00 0.00 0.00 74 1003.8
20260505221510 64 126 1.0 4.0 0.00 0.00 0.00 69 1009.0
20260505220059 64 174 5.0 0.0 0.00 0.00 0.00 72 1003.8
20260505220008 64 185 2.0 11.0 0.00 0.00 0.00 69 1009.0
20260505214621 64 205 3.0 0.0 0.00 0.00 0.00 73 1003.7
20260505214508 65 180 2.0 7.0 0.00 0.00 0.00 69 1008.8
20260505213104 64 171 5.0 0.0 0.00 0.00 0.00 73 1003.8
20260505213007 65 152 1.0 9.0 0.00 0.00 0.00 69 1008.6
20260505211607 64 182 7.0 0.0 0.00 0.00 0.00 74 1003.7
20260505211507 65 184 2.0 13.0 0.00 0.00 0.00 69 1008.8
20260505210058 63 168 5.0 0.0 0.00 0.00 0.00 75 1003.5
20260505210006 64 172 2.0 5.0 0.00 0.00 0.00 70 1008.8
20260505204558 63 175 5.0 0.0 0.00 0.00 0.00 75 1003.7
20260505204506 64 129 1.0 8.0 0.00 0.00 0.00 70 1008.6
20260505203057 63 165 5.0 0.0 0.00 0.00 0.00 76 1003.7
20260505203005 64 152 1.0 7.0 0.00 0.00 0.00 70 1008.7
20260505201557 63 129 4.0 0.0 0.00 0.00 0.00 75 1003.9
20260505201526 63 154 5.0 0.0 0.00 0.00 0.00 75 1003.9
20260505201506 65 167 1.0 11.0 0.00 0.00 0.00 70 1008.8
20260505200105 64 161 7.0 0.0 0.00 0.00 0.00 74 1003.8
20260505200004 65 182 2.0 13.0 0.00 0.00 0.00 70 1009.0
20260505194556 64 186 8.0 0.0 0.00 0.00 0.00 73 1004.2
20260505194504 65 176 1.0 9.0 0.00 0.00 0.00 69 1009.0
20260505193056 65 144 5.0 0.0 0.00 0.00 0.00 72 1004.3
20260505193000 66 99 2.0 8.0 0.00 0.00 0.00 68 1009.3
20260505191558 67 157 1.0 8.0 0.00 0.00 0.00 70 1009.5
20260505191556 65 187 5.0 0.0 0.00 0.00 0.00 72 1004.4